Simultaneous Nadir Overpasses (SNOs) Predictions

Prediction of SNOs between NOAA-19 and TERRA Satellite Orbit:

Table of predicted SNOs for the next 14.0 days since TLE Epoch: 1/11/2020
Index Date (NOAA-19) Time (NOAA-19) Lat,Lon (NOAA-19) SZA (NOAA-19 ) Date (TERRA) Time (TERRA) Lat,Lon (TERRA) SZA (TERRA ) Distance(km) Time Diff (sec)
1 01/12/2020 11:37:29 79.10, 31.22 101.59 01/12/2020 11:38:12 79.12, 31.23 101.61 1.73 43
2 01/12/2020 12:28:23 -79.08,-161.30 78.43 01/12/2020 12:27:40 -79.07,-161.41 78.46 2.23 43
3 01/14/2020 17:10:45 -79.12, 127.82 78.80 01/14/2020 17:11:56 -79.13, 127.85 78.77 0.74 71
4 01/14/2020 18:01:50 79.10, -64.77 101.19 01/14/2020 18:01:23 79.09, -64.72 101.18 1.52 27
5 01/16/2020 23:35:06 -79.12, 31.89 79.23 01/16/2020 23:35:07 -79.11, 31.94 79.23 1.34 1
6 01/19/2020 05:08:32 79.13, 128.50 100.33 01/19/2020 05:08:50 79.13, 128.64 100.35 2.78 18
7 01/19/2020 05:59:27 -79.11, -64.04 79.69 01/19/2020 05:58:18 -79.09, -63.95 79.71 2.60 69
8 01/21/2020 10:41:48 -79.12,-134.66 80.15 01/21/2020 10:42:34 -79.16,-134.63 80.11 3.90 46
9 01/21/2020 11:32:52 79.10, 32.72 99.84 01/21/2020 11:32:01 79.11, 32.75 99.83 1.24 51
10 01/23/2020 16:15:13 79.13, -38.02 99.34 01/23/2020 16:16:18 79.14, -38.17 99.36 3.12 65




NCC Satellite Simultaneous Nadir Overpasses (SNOs) Prediction Service
